This demonstration page uses our WeatherBlox Daily Observations layout. Learn more.

Left ArrowRight Arrow

Hourly Observations for November 17, 2021

Temp ( °F °C ) Dew Point ( °F °C ) Humidity (%) Winds ( mph kmh ) Pressure ( in mb ) Visibility ( mi km ) Precip ( " mm )
12:53 am 00:53 Clear 24 -4.4 14 -10 65 65 WNW 15 24 30.26 1025 10 16 0.00 0.00
1:53 am 01:53 Clear 23 -5 14 -10 68 68 W 13 20 30.30 1026 10 16 0.00 0.00
2:53 am 02:53 Clear 23 -5 13 -10.6 65 65 WSW 13 20 30.33 1027 10 16 0.00 0.00
3:53 am 03:53 Clear 22 -5.6 12 -11.1 66 66 W 13 20 30.35 1028 10 16 0.00 0.00
4:53 am 04:53 Mostly Clear 21 -6.1 12 -11.1 68 68 WSW 12 19 30.37 1028 10 16 0.00 0.00
5:53 am 05:53 Clear 19 -7.2 13 -10.6 77 77 SW 14 22 30.38 1029 10 16 0.00 0.00
6:53 am 06:53 Clear 19 -7.2 13 -10.6 77 77 WSW 13 20 30.41 1030 10 16 0.00 0.00
7:53 am 07:53 Sunny 19 -7.2 13 -10.6 77 77 SW 12 19 30.42 1030 10 16 0.00 0.00
8:53 am 08:53 Sunny 22 -5.6 14 -10 71 71 SW 14 22 30.42 1030 10 16 0.00 0.00
9:53 am 09:53 Sunny 26 -3.3 15 -9.4 63 63 SW 15 24 30.43 1031 10 16 0.00 0.00
10:53 am 10:53 Sunny 30 -1.1 16 -8.9 56 56 SW 16 26 30.42 1030 10 16 0.00 0.00
11:53 am 11:53 Sunny 34 1.1 14 -10 44 44 WNW 17 28 30.40 1029 10 16 0.00 0.00
12:05 pm 12:05 Sunny 35 1.7 14 -10 42 42 WNW 16 26 30.39 1029 10 16 0.00 0.00
12:53 pm 12:53 Sunny 35 1.7 13 -10.6 40 40 W 18 30 30.40 1030 10 16 0.00 0.00
1:53 pm 13:53 Sunny 36 2.2 12 -11.1 37 37 WNW 14 22 30.40 1030 10 16 0.00 0.00
2:53 pm 14:53 Sunny 35 1.7 11 -11.7 37 37 WNW 15 24 30.40 1030 10 16 0.00 0.00
3:53 pm 15:53 Sunny 33 0.6 10 -12.2 38 38 W 9 15 30.42 1030 10 16 0.00 0.00
4:53 pm 16:53 Clear 25 -3.9 11 -11.7 55 55 WNW 7 11 30.43 1031 10 16 0.00 0.00
5:53 pm 17:53 Clear 19 -7.2 10 -12.2 68 68 SSW 5 7 30.44 1031 10 16 0.00 0.00
6:53 pm 18:53 Clear 17 -8.3 11 -11.7 77 77 S 7 11 30.45 1031 10 16 0.00 0.00
7:53 pm 19:53 Clear 21 -6.1 11 -11.7 65 65 Calm 30.42 1030 10 16 0.00 0.00
8:53 pm 20:53 Clear 18 -7.8 11 -11.7 74 74 Calm 30.40 1030 10 16 0.00 0.00
9:53 pm 21:53 Clear 16 -8.9 10 -12.2 77 77 Calm 30.39 1029 10 16 0.00 0.00
10:53 pm 22:53 Clear 17 -8.3 10 -12.2 74 74 Calm 30.37 1029 10 16 0.00 0.00
11:53 pm 23:53 Clear 14 -10 9 -12.8 80 80 ENE 5 7 30.35 1028 10 16 0.00 0.00

Powered by AerisWeather